TimeCDT,TemperatureF,Dew PointF,Humidity,Sea Level PressureIn,VisibilityMPH,Wind Direction,Wind SpeedMPH,Gust SpeedMPH,PrecipitationIn,Events,Conditions,WindDirDegrees,DateUTC
12:15 AM,56.7,52.9,87,30.13,10.0,Calm,Calm,-,N/A,,Clear,0,2013-08-16 05:15:00
12:55 AM,55.9,52.7,89,30.13,10.0,Calm,Calm,-,N/A,,Clear,0,2013-08-16 05:55:00
1:15 AM,55.9,52.5,88,30.13,10.0,Calm,Calm,-,N/A,,Clear,0,2013-08-16 06:15:00
1:35 AM,55.4,51.6,87,30.13,10.0,Calm,Calm,-,N/A,,Clear,0,2013-08-16 06:35:00
1:55 AM,56.7,52.5,86,30.13,10.0,Calm,Calm,-,N/A,,Clear,0,2013-08-16 06:55:00
2:15 AM,55.4,51.8,88,30.13,10.0,Calm,Calm,-,N/A,,Clear,0,2013-08-16 07:15:00
2:35 AM,55.4,51.3,86,30.13,10.0,Calm,Calm,-,N/A,,Clear,0,2013-08-16 07:35:00
2:55 AM,55.4,52.5,90,30.13,10.0,Calm,Calm,-,N/A,,Clear,0,2013-08-16 07:55:00
3:15 AM,54.7,51.8,90,30.14,10.0,Calm,Calm,-,N/A,,Clear,0,2013-08-16 08:15:00
3:35 AM,54.5,51.1,88,30.14,10.0,Calm,Calm,-,N/A,,Clear,0,2013-08-16 08:35:00
3:55 AM,54.1,50.7,88,30.14,10.0,Calm,Calm,-,N/A,,Clear,0,2013-08-16 08:55:00
4:15 AM,53.4,50.2,89,30.14,10.0,Calm,Calm,-,N/A,,Clear,0,2013-08-16 09:15:00
4:35 AM,52.7,49.8,90,30.14,10.0,Calm,Calm,-,N/A,,Clear,0,2013-08-16 09:35:00
4:55 AM,52.0,49.3,90,30.14,10.0,Calm,Calm,-,N/A,,Clear,0,2013-08-16 09:55:00
5:15 AM,53.2,50.5,91,30.15,10.0,Calm,Calm,-,N/A,,Clear,0,2013-08-16 10:15:00
5:35 AM,52.7,50.2,91,30.15,10.0,Calm,Calm,-,N/A,,Clear,0,2013-08-16 10:35:00
5:55 AM,51.8,49.6,92,30.16,10.0,Calm,Calm,-,N/A,,Clear,0,2013-08-16 10:55:00
6:15 AM,51.3,49.5,94,30.16,10.0,Calm,Calm,-,N/A,,Clear,0,2013-08-16 11:15:00
6:35 AM,53.1,51.1,93,30.16,10.0,Calm,Calm,-,N/A,,Clear,0,2013-08-16 11:35:00
6:55 AM,54.0,51.4,91,30.17,10.0,Calm,Calm,-,N/A,,Clear,0,2013-08-16 11:55:00
7:15 AM,56.1,53.6,91,30.17,10.0,Calm,Calm,-,N/A,,Clear,0,2013-08-16 12:15:00
7:35 AM,59.5,54.9,84,30.18,10.0,Calm,Calm,-,N/A,,Clear,0,2013-08-16 12:35:00
7:55 AM,63.5,54.0,71,30.18,10.0,Calm,Calm,-,N/A,,Clear,0,2013-08-16 12:55:00
8:15 AM,64.6,54.9,71,30.18,10.0,Calm,Calm,-,N/A,,Clear,0,2013-08-16 13:15:00
8:35 AM,68.4,54.9,62,30.18,10.0,NW,3.5,-,N/A,,Clear,320,2013-08-16 13:35:00
8:55 AM,70.2,55.2,59,30.18,10.0,NNW,4.6,-,N/A,,Clear,330,2013-08-16 13:55:00
9:15 AM,72.0,55.9,57,30.18,10.0,NNW,3.5,-,N/A,,Clear,330,2013-08-16 14:15:00
9:35 AM,73.8,55.4,53,30.18,10.0,NW,3.5,-,N/A,,Clear,310,2013-08-16 14:35:00
9:55 AM,75.6,54.7,48,30.19,10.0,NW,3.5,-,N/A,,Clear,310,2013-08-16 14:55:00
10:15 AM,76.6,53.6,45,30.19,10.0,Calm,Calm,-,N/A,,Clear,0,2013-08-16 15:15:00
10:35 AM,78.1,51.8,40,30.18,10.0,Calm,Calm,-,N/A,,Clear,0,2013-08-16 15:35:00
10:55 AM,79.0,50.9,37,30.19,10.0,NW,5.8,-,N/A,,Clear,310,2013-08-16 15:55:00
11:15 AM,79.7,49.6,35,30.19,10.0,Calm,Calm,-,N/A,,Clear,0,2013-08-16 16:15:00
11:35 AM,80.1,44.1,28,30.19,10.0,Calm,Calm,-,N/A,,Scattered Clouds,0,2013-08-16 16:35:00
11:55 AM,82.2,45.0,27,30.19,10.0,NW,4.6,-,N/A,,Scattered Clouds,310,2013-08-16 16:55:00
12:15 PM,82.4,41.2,23,30.18,10.0,Calm,Calm,-,N/A,,Scattered Clouds,0,2013-08-16 17:15:00
12:35 PM,79.5,45.1,30,30.18,10.0,Calm,Calm,-,N/A,,Scattered Clouds,0,2013-08-16 17:35:00
12:55 PM,80.6,45.0,28,30.18,10.0,West,3.5,-,N/A,,Clear,280,2013-08-16 17:55:00
1:15 PM,83.5,44.8,26,30.17,10.0,North,5.8,-,N/A,,Scattered Clouds,360,2013-08-16 18:15:00
1:35 PM,82.8,43.0,25,30.17,10.0,Calm,Calm,-,N/A,,Scattered Clouds,0,2013-08-16 18:35:00
1:55 PM,82.4,45.1,27,30.17,10.0,NNW,5.8,-,N/A,,Mostly Cloudy,330,2013-08-16 18:55:00
2:15 PM,82.2,44.4,26,30.17,10.0,NE,5.8,-,N/A,,Mostly Cloudy,50,2013-08-16 19:15:00
2:35 PM,84.4,42.6,23,30.17,10.0,Calm,Calm,-,N/A,,Mostly Cloudy,0,2013-08-16 19:35:00
2:55 PM,82.2,44.2,26,30.17,10.0,Calm,Calm,-,N/A,,Overcast,0,2013-08-16 19:55:00
3:15 PM,83.7,43.7,24,30.16,10.0,Calm,Calm,-,N/A,,Overcast,0,2013-08-16 20:15:00
3:35 PM,82.6,44.1,26,30.16,10.0,Calm,Calm,-,N/A,,Mostly Cloudy,0,2013-08-16 20:35:00
3:55 PM,83.1,44.2,25,30.16,10.0,Calm,Calm,-,N/A,,Overcast,0,2013-08-16 20:55:00
4:15 PM,81.5,45.0,28,30.16,10.0,Calm,Calm,-,N/A,,Overcast,0,2013-08-16 21:15:00
4:35 PM,81.5,45.5,28,30.16,10.0,Calm,Calm,-,N/A,,Scattered Clouds,0,2013-08-16 21:35:00
4:55 PM,84.4,45.0,25,30.16,10.0,East,3.5,-,N/A,,Scattered Clouds,100,2013-08-16 21:55:00
5:15 PM,83.5,45.0,26,30.16,10.0,NE,3.5,-,N/A,,Mostly Cloudy,50,2013-08-16 22:15:00
5:35 PM,83.3,44.6,26,30.16,10.0,East,4.6,-,N/A,,Mostly Cloudy,80,2013-08-16 22:35:00
5:55 PM,83.1,45.9,27,30.16,10.0,East,3.5,-,N/A,,Scattered Clouds,100,2013-08-16 22:55:00
6:15 PM,81.5,45.1,28,30.16,10.0,East,3.5,-,N/A,,Scattered Clouds,90,2013-08-16 23:15:00
6:35 PM,82.0,46.2,28,30.16,10.0,SE,3.5,-,N/A,,Clear,130,2013-08-16 23:35:00
6:55 PM,80.6,49.5,34,30.16,10.0,SE,3.5,-,N/A,,Clear,140,2013-08-16 23:55:00
7:15 PM,78.6,52.5,40,30.16,10.0,Calm,Calm,-,N/A,,Scattered Clouds,0,2013-08-17 00:15:00
7:35 PM,76.1,54.1,46,30.17,10.0,Calm,Calm,-,N/A,,Scattered Clouds,0,2013-08-17 00:35:00
7:55 PM,72.7,55.0,54,30.17,10.0,Calm,Calm,-,N/A,,Clear,0,2013-08-17 00:55:00
8:15 PM,71.6,54.1,54,30.17,10.0,Calm,Calm,-,N/A,,Clear,0,2013-08-17 01:15:00
8:35 PM,67.5,57.0,69,30.18,10.0,Calm,Calm,-,N/A,,Clear,0,2013-08-17 01:35:00
8:55 PM,65.8,56.7,72,30.18,10.0,Calm,Calm,-,N/A,,Clear,0,2013-08-17 01:55:00
9:15 PM,64.6,56.3,74,30.18,10.0,Calm,Calm,-,N/A,,Clear,0,2013-08-17 02:15:00
9:35 PM,63.3,57.6,81,30.18,10.0,Calm,Calm,-,N/A,,Clear,0,2013-08-17 02:35:00
9:55 PM,62.2,58.3,87,30.18,10.0,Calm,Calm,-,N/A,,Clear,0,2013-08-17 02:55:00
10:15 PM,60.8,57.6,89,30.18,10.0,Calm,Calm,-,N/A,,Clear,0,2013-08-17 03:15:00
10:35 PM,60.8,57.6,89,30.19,10.0,Calm,Calm,-,N/A,,Clear,0,2013-08-17 03:35:00
10:55 PM,59.4,55.9,88,30.19,10.0,East,4.6,-,N/A,,Clear,100,2013-08-17 03:55:00
11:15 PM,58.8,56.1,91,30.19,10.0,Calm,Calm,-,N/A,,Clear,0,2013-08-17 04:15:00
11:35 PM,59.0,55.8,89,30.19,10.0,Calm,Calm,-,N/A,,Clear,0,2013-08-17 04:35:00
11:55 PM,58.5,56.1,92,30.20,10.0,Calm,Calm,-,N/A,,Clear,0,2013-08-17 04:55:00